Simultaneous Nadir Overpasses (SNOs) Predictions

Prediction of SNOs between GOES-16 and TERRA Satellite Orbit:

Table of predicted SNOs for the next 14.0 days since TLE Epoch: 11/9/2024
Index Date Time (GOES-16) GOES-16 Lat,Lon TERRA Lat,Lon Distance(km) Time Diff (sec)
1 11/09/2024 14:40:17 -0.03, -75.22 -0.03, -75.28 6.75 80
2 11/11/2024 14:19:25 -0.03, -75.23 -0.92, -70.89 493.40 80
3 11/12/2024 02:41:55 0.03, -75.22 -0.05, -75.72 56.66 80
4 11/14/2024 02:21:02 0.03, -75.24 0.86, -71.33 444.65 80
5 11/14/2024 14:43:25 -0.02, -75.26 0.14, -76.12 97.55 80
6 11/16/2024 14:22:30 -0.02, -75.28 -0.74, -71.72 404.67 80
7 11/17/2024 02:45:00 0.02, -75.27 -0.25, -76.54 144.86 80
8 11/19/2024 02:24:04 0.01, -75.30 0.65, -72.14 358.54 80
9 11/19/2024 14:46:27 -0.01, -75.32 0.30, -76.94 183.04 80
10 11/21/2024 14:25:29 -0.00, -75.36 -0.57, -72.52 322.07 80
11 11/22/2024 02:47:58 -0.00, -75.35 -0.44, -77.34 226.67 80
